Flag for Taiwan Weather past 2 weeks in Kaohsiung, Taiwan

Now
75 °F

Scattered clouds.


Feels Like: 77 °F
Forecast: 65 / 83 °F
Wind: 8 mph from Northwest

Location: Kaohsiung International Airport

Current Time: Mar 6, 2015 at 5:36:56 PM

Latest Report: Mar 6, 2015 at 5:00 PM


Visibility: N/A

Pressure: 29.95 "Hg

Humidity: 74%

Dew point: 66 °F

Location of KaohsiungLocation

Historic Weather in Kaohsiung — Graph

°F

Kaohsiung temperature yesterday

Maximum temperature yesterday: 82 °F (at 12:30 PM)
Minimum temperature yesterday: 68 °F (at 1:00 AM)
Average temperature yesterday: 74 °F

Past Weeks' High & Low Weather Summary

 TemperatureHumidityPressure
High88 °F (Feb 26, 2:00 PM)100% (Feb 21, 11:30 PM)30.15 "Hg (Feb 21, 11:30 PM)
Low63 °F (Feb 21, 6:00 AM)52% (Feb 26, 2:00 PM)29.80 "Hg (Mar 3, 3:30 PM)
Average74 °F77%29.99 "Hg
* Reported Feb 19 4:00 PM — Mar 6 4:30 PM, Kaohsiung, Weather by CustomWeather, © 2015

Note: Actual official high and low records may vary slightly from our data, if they occured in-between our weather recording intervals... More about our weather records

Advertising

Kaohsiung weather history for previous 24 hours

 ConditionsComfort  
Time TempWeatherWind HumidityBarometerVisibility
4:30 PM
Fri, Mar 6
75 °FScattered clouds.9 mph74%29.95 "HgN/A
4:00 PM75 °FPassing clouds.12 mph74%29.95 "HgN/A
3:30 PM77 °FScattered clouds.12 mph69%29.95 "HgN/A
3:00 PM79 °FScattered clouds.10 mph70%29.95 "Hg6 mi
2:30 PM77 °FBroken clouds.12 mph74%29.95 "Hg4 mi
2:00 PM79 °FBroken clouds.9 mph70%29.95 "Hg4 mi
1:52 PM79 °FBroken clouds.10 mph70%29.95 "Hg4 mi
1:30 PM82 °FBroken clouds.12 mph58%29.98 "Hg4 mi
1:00 PM82 °FPartly sunny.13 mph58%29.98 "Hg4 mi
12:30 PM82 °FPassing clouds.10 mph62%30.01 "Hg4 mi
12:00 PM82 °FPassing clouds.3 mph58%30.01 "Hg4 mi
11:30 AM81 °FPassing clouds.5 mph62%30.04 "Hg4 mi
11:00 AM79 °FPassing clouds.6 mph65%30.04 "Hg4 mi
10:30 AM79 °FHaze.5 mph61%30.07 "Hg3 mi
10:00 AM75 °FHaze.8 mph69%30.07 "Hg3 mi
9:30 AM75 °FHaze.7 mph69%30.07 "Hg3 mi
9:00 AM72 °FHaze.7 mph78%30.07 "Hg3 mi
8:30 AM72 °FHaze.7 mph78%30.07 "Hg3 mi
8:00 AM70 °FScattered clouds.7 mph78%30.04 "Hg3 mi
7:30 AM68 °FFog.7 mph83%30.04 "Hg2 mi
7:00 AM68 °FFog.12 mph83%30.01 "Hg2 mi
6:30 AM68 °FFog.8 mph83%30.01 "Hg2 mi
6:00 AM68 °FFog.10 mph88%30.01 "Hg2 mi
5:00 AM70 °FFog.7 mph83%29.98 "Hg2 mi
4:00 AM70 °FFog.2 mph83%29.98 "Hg3 mi
3:00 AM68 °FFog.7 mph88%29.98 "Hg2 mi
2:00 AM70 °FFog.5 mph83%29.98 "Hg3 mi
1:00 AM70 °FFog.7 mph83%30.01 "Hg3 mi
12:00 AM72 °FFog.6 mph78%30.01 "Hg3 mi
11:30 PM
Thu, Mar 5
72 °FPassing clouds.5 mph78%30.01 "Hg3 mi
11:00 PM72 °FPartly cloudy.5 mph78%30.01 "Hg3 mi
10:48 PM72 °FPartly cloudy.5 mph78%30.01 "Hg3 mi
10:00 PM73 °FPartly cloudy.5 mph78%30.01 "Hg3 mi
9:30 PM73 °FPartly cloudy.5 mph74%30.01 "Hg3 mi
9:00 PM73 °FPartly cloudy.8 mph74%30.01 "Hg4 mi
8:30 PM73 °FPartly cloudy.6 mph78%30.01 "Hg4 mi
8:00 PM73 °FPassing clouds.6 mph78%29.98 "Hg4 mi
7:30 PM73 °FPassing clouds.7 mph78%29.98 "Hg6 mi
7:00 PM73 °FPassing clouds.7 mph78%29.98 "HgN/A
6:30 PM73 °FPassing clouds.6 mph78%29.98 "HgN/A
6:00 PM73 °FScattered clouds.7 mph78%29.98 "HgN/A
5:30 PM75 °FPassing clouds.8 mph74%29.98 "HgN/A
5:00 PM75 °FPassing clouds.9 mph74%29.98 "HgN/A
Weather by CustomWeather, © 2015

See weather overviewHow to use our weather pages